timestamp,wind_dir_avg,wind_spd_avg,wind_spd_max_dir,wind_spd_gust,battery_voltage,lat,long
2023-06-23 00:04:00+00:00,214.0,4.42,216.0,5.61,12.97,47.59359,-54.27349
2023-06-23 00:14:01+00:00,219.0,3.56,229.0,4.86,12.41,47.59359,-54.27349
2023-06-23 00:24:01+00:00,216.0,4.39,220.0,5.11,12.41,47.59359,-54.27349
2023-06-23 00:34:01+00:00,232.0,5.02,232.0,5.43,12.41,47.59359,-54.27349
2023-06-23 00:44:01+00:00,225.0,4.8,228.0,5.11,12.41,47.59359,-54.27349
2023-06-23 00:54:01+00:00,222.0,4.61,224.0,5.57,12.41,47.59359,-54.27349
2023-06-23 01:04:01+00:00,220.0,5.76,218.0,6.31,12.41,47.59359,-54.27349
2023-06-23 01:14:01+00:00,215.0,5.31,217.0,6.37,12.41,47.59359,-54.27349
2023-06-23 01:24:01+00:00,169.0,3.35,167.0,4.08,12.41,47.59359,-54.27349
2023-06-23 01:34:01+00:00,198.0,4.28,201.0,4.96,12.41,47.59359,-54.27349
2023-06-23 01:44:01+00:00,192.0,5.52,197.0,6.45,12.41,47.59359,-54.27349
2023-06-23 01:54:01+00:00,192.0,5.31,198.0,5.97,12.41,47.59359,-54.27349
2023-06-23 02:04:01+00:00,186.0,3.45,187.0,3.77,12.41,47.59359,-54.27349
2023-06-23 02:14:01+00:00,189.0,3.06,197.0,3.76,12.41,47.59359,-54.27349
2023-06-23 02:24:01+00:00,196.0,5.9,198.0,6.46,12.41,47.59359,-54.27349
2023-06-23 02:34:01+00:00,206.0,6.31,205.0,6.78,12.41,47.59359,-54.27349
2023-06-23 02:44:01+00:00,207.0,6.23,208.0,6.63,12.41,47.59359,-54.27349
2023-06-23 02:54:01+00:00,211.0,5.82,212.0,6.1,12.41,47.59359,-54.27349
2023-06-23 03:04:01+00:00,212.0,5.53,215.0,6.28,12.41,47.59359,-54.27349
2023-06-23 03:14:01+00:00,206.0,6.07,206.0,6.82,12.41,47.59359,-54.27349
2023-06-23 03:24:01+00:00,213.0,7.57,214.0,8.18,12.41,47.59359,-54.27349
2023-06-23 03:34:01+00:00,215.0,6.65,213.0,7.03,12.41,47.59359,-54.27349
2023-06-23 03:44:01+00:00,215.0,7.82,222.0,9.51,12.41,47.59359,-54.27349
2023-06-23 03:54:01+00:00,218.0,6.92,218.0,7.72,12.41,47.59359,-54.27349
2023-06-23 04:04:01+00:00,223.0,7.48,234.0,8.92,12.41,47.59359,-54.27349
2023-06-23 04:14:00+00:00,220.0,6.55,234.0,8.18,12.33,47.59359,-54.27349
2023-06-23 04:24:00+00:00,219.0,5.99,218.0,6.33,12.33,47.59359,-54.27349
2023-06-23 04:34:00+00:00,222.0,7.04,222.0,7.77,12.33,47.59359,-54.27349
2023-06-23 04:44:00+00:00,231.0,8.67,240.0,11.0,12.33,47.59359,-54.27349
2023-06-23 04:54:00+00:00,227.0,7.49,237.0,9.96,12.33,47.59359,-54.27349
2023-06-23 05:04:00+00:00,223.0,6.93,228.0,8.07,12.33,47.59359,-54.27349
2023-06-23 05:14:01+00:00,217.0,6.07,218.0,6.61,12.33,47.59359,-54.27349
2023-06-23 05:24:01+00:00,221.0,6.79,226.0,7.4,12.33,47.59359,-54.27349
2023-06-23 05:34:01+00:00,228.0,7.67,243.0,11.05,12.33,47.59359,-54.27349
2023-06-23 05:44:01+00:00,224.0,7.87,240.0,10.52,12.33,47.59359,-54.27349
2023-06-23 05:54:01+00:00,218.0,7.23,222.0,9.03,12.33,47.59359,-54.27349
2023-06-23 06:04:01+00:00,212.0,5.4,213.0,6.27,12.33,47.59359,-54.27349
2023-06-23 06:14:00+00:00,219.0,6.22,218.0,7.1,12.25,47.59359,-54.27349
2023-06-23 06:24:00+00:00,215.0,7.27,219.0,8.46,12.25,47.59359,-54.27349
2023-06-23 06:34:00+00:00,213.0,7.64,218.0,8.27,12.25,47.59359,-54.27349
2023-06-23 06:44:00+00:00,211.0,7.35,209.0,7.99,12.25,47.59359,-54.27349
2023-06-23 06:54:00+00:00,203.0,6.17,202.0,7.02,12.25,47.59359,-54.27349
2023-06-23 07:04:00+00:00,196.0,5.11,200.0,5.83,12.25,47.59359,-54.27349
2023-06-23 07:14:01+00:00,192.0,4.76,197.0,5.39,12.25,47.59359,-54.27349
2023-06-23 07:24:01+00:00,200.0,5.05,198.0,5.68,12.25,47.59359,-54.27349
2023-06-23 07:34:01+00:00,203.0,4.88,205.0,5.2,12.25,47.59359,-54.27349
2023-06-23 07:44:01+00:00,206.0,6.5,212.0,6.99,12.25,47.59359,-54.27349
2023-06-23 07:54:01+00:00,209.0,7.02,205.0,7.64,12.25,47.59359,-54.27349
2023-06-23 08:04:01+00:00,215.0,8.05,227.0,9.18,12.25,47.59359,-54.27349
2023-06-23 08:14:01+00:00,215.0,8.76,226.0,10.22,12.25,47.59359,-54.27349
2023-06-23 08:24:01+00:00,206.0,7.2,208.0,7.86,12.25,47.59359,-54.27349
2023-06-23 08:34:01+00:00,208.0,6.83,205.0,7.44,12.25,47.59359,-54.27349
2023-06-23 08:44:01+00:00,208.0,6.0,206.0,6.64,12.25,47.59359,-54.27349
2023-06-23 08:54:01+00:00,204.0,5.47,205.0,5.94,12.25,47.59359,-54.27349
2023-06-23 09:04:01+00:00,201.0,4.75,204.0,5.12,12.25,47.59359,-54.27349
2023-06-23 09:14:00+00:00,178.0,2.78,175.0,3.29,12.33,47.59359,-54.27349
2023-06-23 09:24:00+00:00,202.0,3.86,205.0,4.56,12.33,47.59359,-54.27349
2023-06-23 09:34:00+00:00,214.0,5.75,215.0,6.0,12.33,47.59359,-54.27349
2023-06-23 09:44:00+00:00,207.0,5.3,207.0,5.75,12.33,47.59359,-54.27349
2023-06-23 09:54:00+00:00,209.0,5.57,209.0,6.04,12.33,47.59359,-54.27349
2023-06-23 10:04:00+00:00,207.0,5.58,208.0,5.78,12.33,47.59359,-54.27349
2023-06-23 10:14:00+00:00,211.0,4.68,206.0,5.1,12.89,47.59359,-54.27349
2023-06-23 10:24:00+00:00,214.0,5.4,214.0,5.88,12.89,47.59359,-54.27349
2023-06-23 10:34:00+00:00,234.0,4.65,234.0,5.06,12.89,47.59359,-54.27349
2023-06-23 10:44:00+00:00,239.0,3.76,242.0,4.54,12.89,47.59359,-54.27349
2023-06-23 10:54:00+00:00,238.0,4.33,240.0,4.6,12.89,47.59359,-54.27349
2023-06-23 11:04:00+00:00,233.0,3.34,232.0,4.0,12.89,47.59359,-54.27349
2023-06-23 11:14:00+00:00,225.0,2.46,215.0,3.15,13.37,47.59359,-54.27349
2023-06-23 11:24:00+00:00,212.0,2.99,210.0,3.5,13.37,47.59359,-54.27349
2023-06-23 11:34:00+00:00,204.0,2.79,210.0,3.25,13.37,47.59359,-54.27349
2023-06-23 11:44:00+00:00,218.0,3.7,218.0,4.04,13.37,47.59359,-54.27349
2023-06-23 11:54:00+00:00,218.0,4.72,217.0,5.21,13.37,47.59359,-54.27349
2023-06-23 12:04:00+00:00,215.0,7.14,216.0,7.87,13.37,47.59359,-54.27349
2023-06-23 12:14:00+00:00,229.0,6.36,230.0,6.83,13.68,47.59359,-54.27349
2023-06-23 12:24:00+00:00,215.0,4.5,214.0,4.88,13.68,47.59359,-54.27349
2023-06-23 12:34:00+00:00,203.0,4.3,206.0,5.28,13.68,47.59359,-54.27349
2023-06-23 12:44:00+00:00,210.0,6.64,208.0,7.69,13.68,47.59359,-54.27349
2023-06-23 12:54:00+00:00,215.0,6.68,215.0,7.25,13.68,47.59359,-54.27349
2023-06-23 13:04:00+00:00,217.0,6.3,216.0,6.73,13.68,47.59359,-54.27349
2023-06-23 13:14:00+00:00,213.0,6.42,213.0,7.03,13.68,47.59359,-54.27349
2023-06-23 13:24:00+00:00,213.0,6.89,212.0,7.49,13.68,47.59359,-54.27349
2023-06-23 13:34:00+00:00,211.0,8.18,213.0,8.88,13.68,47.59359,-54.27349
2023-06-23 13:44:00+00:00,209.0,8.63,214.0,9.72,13.68,47.59359,-54.27349
2023-06-23 13:54:00+00:00,208.0,8.01,209.0,9.33,13.68,47.59359,-54.27349
2023-06-23 14:04:00+00:00,213.0,8.47,218.0,9.28,13.68,47.59359,-54.27349
2023-06-23 14:14:00+00:00,213.0,8.12,225.0,9.66,13.68,47.59359,-54.27349
2023-06-23 14:24:00+00:00,212.0,8.65,227.0,10.56,13.68,47.59359,-54.27349
2023-06-23 14:34:00+00:00,212.0,6.53,210.0,8.35,13.68,47.59359,-54.27349
2023-06-23 14:44:00+00:00,212.0,8.87,218.0,9.89,13.68,47.59359,-54.27349
2023-06-23 14:54:00+00:00,216.0,9.35,226.0,11.12,13.68,47.59359,-54.27349
2023-06-23 15:04:00+00:00,215.0,9.38,224.0,11.62,13.68,47.59359,-54.27349
2023-06-23 15:14:00+00:00,206.0,7.89,211.0,9.03,13.6,47.59359,-54.27349
2023-06-23 15:24:00+00:00,215.0,9.21,225.0,11.09,13.6,47.59359,-54.27349
2023-06-23 15:34:00+00:00,222.0,11.72,227.0,13.04,13.6,47.59359,-54.27349
2023-06-23 15:44:00+00:00,222.0,11.33,227.0,13.81,13.6,47.59359,-54.27349
2023-06-23 15:54:00+00:00,224.0,11.97,226.0,13.03,13.6,47.59359,-54.27349
2023-06-23 16:04:00+00:00,226.0,11.36,229.0,12.44,13.6,47.59359,-54.27349
2023-06-23 17:14:01+00:00,209.0,8.94,223.0,10.89,13.68,47.59359,-54.27349
2023-06-23 17:24:01+00:00,208.0,8.4,209.0,9.16,13.68,47.59359,-54.27349
2023-06-23 17:34:01+00:00,208.0,7.47,207.0,8.4,13.68,47.59359,-54.27349
2023-06-23 17:44:01+00:00,202.0,6.28,204.0,6.83,13.68,47.59359,-54.27349
2023-06-23 17:54:01+00:00,182.0,7.13,185.0,7.96,13.68,47.59359,-54.27349
2023-06-23 18:04:01+00:00,186.0,5.42,183.0,6.25,13.68,47.59359,-54.27349
2023-06-23 18:14:00+00:00,190.0,8.06,190.0,9.41,13.68,47.59359,-54.27349
2023-06-23 18:24:00+00:00,191.0,8.88,192.0,9.96,13.68,47.59359,-54.27349
2023-06-23 18:34:00+00:00,194.0,8.34,196.0,9.43,13.68,47.59359,-54.27349
2023-06-23 18:44:00+00:00,201.0,7.78,211.0,8.97,13.68,47.59359,-54.27349
2023-06-23 18:54:00+00:00,234.0,8.2,233.0,9.58,13.68,47.59359,-54.27349
2023-06-23 19:04:00+00:00,233.0,8.47,234.0,9.49,13.68,47.59359,-54.27349
2023-06-23 19:14:00+00:00,212.0,7.62,213.0,8.2,13.68,47.59359,-54.27349
2023-06-23 19:24:00+00:00,216.0,6.96,218.0,8.24,13.68,47.59359,-54.27349
2023-06-23 19:34:00+00:00,234.0,9.71,233.0,10.92,13.68,47.59359,-54.27349
2023-06-23 19:44:00+00:00,233.0,10.86,234.0,11.89,13.68,47.59359,-54.27349
2023-06-23 19:54:00+00:00,235.0,10.96,238.0,14.45,13.68,47.59359,-54.27349
2023-06-23 20:04:00+00:00,236.0,10.51,236.0,14.42,13.68,47.59359,-54.27349
2023-06-23 20:14:01+00:00,241.0,8.24,238.0,9.33,13.68,47.59359,-54.27349
2023-06-23 20:24:01+00:00,243.0,9.22,246.0,10.32,13.68,47.59359,-54.27349
2023-06-23 20:34:01+00:00,248.0,9.14,250.0,9.76,13.68,47.59359,-54.27349
2023-06-23 20:44:01+00:00,243.0,9.36,241.0,10.14,13.68,47.59359,-54.27349
2023-06-23 20:54:01+00:00,201.0,6.04,196.0,7.18,13.68,47.59359,-54.27349
2023-06-23 21:04:01+00:00,199.0,5.62,201.0,6.75,13.68,47.59359,-54.27349
2023-06-23 21:14:01+00:00,191.0,6.75,187.0,7.84,13.53,47.59359,-54.27349
2023-06-23 21:24:01+00:00,216.0,5.73,223.0,7.27,13.53,47.59359,-54.27349
2023-06-23 21:34:01+00:00,212.0,5.06,210.0,7.42,13.53,47.59359,-54.27349
2023-06-23 21:44:01+00:00,178.0,6.47,180.0,7.51,13.53,47.59359,-54.27349
2023-06-23 21:54:01+00:00,191.0,6.08,190.0,7.26,13.53,47.59359,-54.27349
2023-06-23 22:04:01+00:00,194.0,8.73,196.0,10.08,13.53,47.59359,-54.27349
2023-06-23 22:14:01+00:00,194.0,8.42,196.0,9.45,13.37,47.59359,-54.27349
2023-06-23 22:24:01+00:00,194.0,8.91,192.0,9.7,13.37,47.59359,-54.27349
2023-06-23 22:34:01+00:00,194.0,8.42,195.0,9.15,13.37,47.59359,-54.27349
2023-06-23 22:44:01+00:00,198.0,7.87,202.0,8.66,13.37,47.59359,-54.27349
2023-06-23 22:54:01+00:00,201.0,7.6,199.0,8.25,13.37,47.59359,-54.27349
2023-06-23 23:04:01+00:00,203.0,7.47,206.0,8.51,13.37,47.59359,-54.27349
2023-06-23 23:14:00+00:00,204.0,8.48,204.0,9.31,12.89,47.59359,-54.27349
2023-06-23 23:24:00+00:00,203.0,7.56,205.0,8.6,12.89,47.59359,-54.27349
2023-06-23 23:34:00+00:00,202.0,7.48,205.0,8.38,12.89,47.59359,-54.27349
2023-06-23 23:44:00+00:00,204.0,7.52,205.0,8.42,12.89,47.59359,-54.27349
2023-06-23 23:54:00+00:00,208.0,8.03,216.0,9.56,12.89,47.59359,-54.27349
